Weather in Leninsky

Russia / Sakha (Yakutia) Republic     58°34′20″N   125°26′23″E
temp.,
°C
wind,
m/s
gust,
m/s
humid.,
%
clouds,
%
prec.,
mm/h
press.,
hPa
HPBL,
m
13 june, sun
sun1300:00+5nw2398100 6.0 1013256
03:00+5nnw2398100 7.4 1014307
06:00+4nnw2597100 0.6 1015657
09:00+5n2393100 0.9 1015466
12:00+8nw117172 0.1 1014925
15:00+11wnw125583 0.1 10111445
18:00+12nw115065 0.0 10111512
21:00+8ene117030 0.0 101010
14 june, mon
mon1400:00+6se337163 0.0 101114
03:00+5ese2280100 0.0 101010
06:00+8se2271100 0.0 1007111
09:00+11ese2354100 0.0 1005443
12:00+16ese2357100 0.0 1002977
15:00+13s3376100 0.3 1002270
18:00+11s2289100 0.4 100254
21:00+10ssw2290100 0.5 100227
15 june, tue
tue1500:00+10sw1194100 0.1 100223
03:00+9wnw1198100 0.6 100140
06:00+9wnw1299100 0.3 1001143
09:00+9wnw1196100 0.4 1002187
12:00+10w1288100 0.1 1002424
15:00+11nw1181100 0.1 1002620
18:00+10nne2293100 0.3 1002227
21:00+9nne3499100 1.8 1002208
16 june, wed
wed1600:00+9nne23100100 2.9 1001172
03:00+8n4699100 8.9 1000324
06:00+7ne71296100 7.8 1000948
09:00+7ne71395100 19.4 10011083
12:00+8nne4894100 4.1 1001752
15:00+8nnw3698100 9.7 1002524
18:00+7n41099100 5.5 1004771
21:00+7nne2495100 7.2 1005286
17 june, thu
thu1700:00+7nne2295100 0.4 100561
03:00+7n2298100 1.1 100487
06:00+7n24100100 0.5 1005194
09:00+7nne3599100 0.6 1004319
12:00+9ne51193100 0.1 1003798
15:00+11ne81389100 0.4 1001914
18:00+12ene91587100 1.6 1000864
21:00+11e71591100 3.7 1001710